Location: Newark
(23.5328°S, 46.7919°W)
Time: 18:38:56
(UTC+00:00)

Envisat - Pass Details

Date: 10 March 2021
Orbit: 764 x 766 km, 98.1° (Epoch: 17 April)

Event Time Altitude Azimuth Distance (km) Brightness Sun altitude
Rises 07:38:00 0° 29° (NNE) 3,214 6.4 -20.9°
Reaches altitude 10° 07:40:23 10° 36° (NE) 2,295 5.7 -20.4°
Maximum altitude 07:45:08 42° 105° (ESE) 1,089 4.3 -19.3°
Drops below altitude 10° 07:49:56 10° 175° (S) 2,319 5.7 -18.2°
Sets 07:52:21 0° 181° (S) 3,252 6.4 -17.7°
